Satellite: OKEAN-4 Catalog number: 23317 Epoch time: 09350.30965075 Element set: 0101 Inclination: 082.5381 deg RA of node: 164.5322 deg Eccentricity: 0.0023483 Arg of perigee: 121.8759 deg Mean anomaly: 238.4746 deg Mean motion: 14.82746360 rev/day Decay rate: 6.5e-07 rev/day^2 Epoch rev: 81935 Checksum: 300
Satellite: NOAA-14 Catalog number: 23455 Epoch time: 09351.40021462 Element set: 867 Inclination: 098.8954 deg RA of node: 068.2957 deg Eccentricity: 0.0009910 Arg of perigee: 035.5130 deg Mean anomaly: 324.6739 deg Mean motion: 14.13774787 rev/day Decay rate: -2.5e-07 rev/day^2 Epoch rev: 77181 Checksum: 324
Satellite: NOAA-15 Catalog number: 25338 Epoch time: 09350.85117295 Element set: 0194 Inclination: 098.6002 deg RA of node: 336.2184 deg Eccentricity: 0.0009871 Arg of perigee: 243.8772 deg Mean anomaly: 116.1400 deg Mean motion: 14.24798075 rev/day Decay rate: 1.59e-06 rev/day^2 Epoch rev: 60278 Checksum: 314
Satellite: RESURS Catalog number: 25394 Epoch time: 09350.12218927 Element set: 0383 Inclination: 098.3201 deg RA of node: 013.0449 deg Eccentricity: 0.0002280 Arg of perigee: 052.1457 deg Mean anomaly: 307.9931 deg Mean motion: 14.24191346 rev/day Decay rate: -3.3e-07 rev/day^2 Epoch rev: 59429 Checksum: 279
Satellite: FENGYUN1 Catalog number: 25730 Epoch time: 09350.34486247 Element set: 0925 Inclination: 098.7714 deg RA of node: 315.2109 deg Eccentricity: 0.0023768 Arg of perigee: 056.8391 deg Mean anomaly: 303.5063 deg Mean motion: 14.08133113 rev/day Decay rate: 7.97e-06 rev/day^2 Epoch rev: 54595 Checksum: 309
Satellite: OKEAN-0 Catalog number: 25860 Epoch time: 09350.15094333 Element set: 0864 Inclination: 097.8090 deg RA of node: 324.3309 deg Eccentricity: 0.0000941 Arg of perigee: 042.2161 deg Mean anomaly: 317.9123 deg Mean motion: 14.73602627 rev/day Decay rate: 4.1e-07 rev/day^2 Epoch rev: 55994 Checksum: 283
Satellite: NOAA-16 Catalog number: 26536 Epoch time: 09350.83140893 Element set: 0673 Inclination: 099.1764 deg RA of node: 358.9380 deg Eccentricity: 0.0011192 Arg of perigee: 127.4646 deg Mean anomaly: 232.7535 deg Mean motion: 14.12539817 rev/day Decay rate: -2.55e-06 rev/day^2 Epoch rev: 47608 Checksum: 330
Satellite: NOAA-17 Catalog number: 27453 Epoch time: 09350.81757177 Element set: 0669 Inclination: 098.4605 deg RA of node: 043.3620 deg Eccentricity: 0.0010944 Arg of perigee: 313.4703 deg Mean anomaly: 046.5539 deg Mean motion: 14.24115162 rev/day Decay rate: 1.25e-06 rev/day^2 Epoch rev: 38874 Checksum: 306
Satellite: NOAA-18 Catalog number: 28654 Epoch time: 09350.81880379 Element set: 0151 Inclination: 098.9284 deg RA of node: 292.8155 deg Eccentricity: 0.0014027 Arg of perigee: 205.1437 deg Mean anomaly: 154.9031 deg Mean motion: 14.11312601 rev/day Decay rate: 3.09e-06 rev/day^2 Epoch rev: 23571 Checksum: 293
Satellite: NOAA-19 Catalog number: 33591 Epoch time: 09350.83820253 Element set: 0359 Inclination: 098.7682 deg RA of node: 292.0267 deg Eccentricity: 0.0014968 Arg of perigee: 086.3706 deg Mean anomaly: 273.9206 deg Mean motion: 14.11009081 rev/day Decay rate: 1.79e-06 rev/day^2 Epoch rev: 04419 Checksum: 321
/EX SB KEPS @ AMSAT $ORB09351.M Orbital Elements 09351.MISC
HR AMSAT ORBITAL ELEMENTS FOR MANNED AND MISCELLANEOUS SATELLITES FROM WA5QGD FORT WORTH,TX December 17, 2009 Send Subscribe/unsubscribe to KEPS at http://www.amsat.org/mailman/listinfo/keps BID: ORB09351.M TO ALL RADIO AMATEURS BT
Satellite: HUBBLE Catalog number: 20580 Epoch time: 09351.11789052 Element set: 490 Inclination: 028.4720 deg RA of node: 348.3487 deg Eccentricity: 0.0003274 Arg of perigee: 070.8937 deg Mean anomaly: 289.2065 deg Mean motion: 15.00866238 rev/day Decay rate: 3.16e-06 rev/day^2 Epoch rev: 87736 Checksum: 310
Satellite: ISS Catalog number: 25544 Epoch time: 09351.83978130 Element set: 191 Inclination: 051.6444 deg RA of node: 082.8637 deg Eccentricity: 0.0008135 Arg of perigee: 090.4642 deg Mean anomaly: 008.4402 deg Mean motion: 15.76670945 rev/day Decay rate: 1.9369e-04 rev/day^2 Epoch rev: 63489 Checksum: 321
Satellite: CO-58 Catalog number: 28895 Epoch time: 09349.70424699 Element set: 0465 Inclination: 098.0372 deg RA of node: 234.9884 deg Eccentricity: 0.0018622 Arg of perigee: 137.9983 deg Mean anomaly: 222.2634 deg Mean motion: 14.59824611 rev/day Decay rate: 1.13e-06 rev/day^2 Epoch rev: 22021 Checksum: 336
Satellite: FALCON Catalog number: 30776 Epoch time: 09349.67418475 Element set: 0725 Inclination: 035.4332 deg RA of node: 078.1887 deg Eccentricity: 0.0001505 Arg of perigee: 003.3904 deg Mean anomaly: 356.6821 deg Mean motion: 15.03393607 rev/day Decay rate: 3.82e-06 rev/day^2 Epoch rev: 15242 Checksum: 297
Satellite: MAST Catalog number: 31126 Epoch time: 09351.69840610 Element set: 756 Inclination: 097.9647 deg RA of node: 037.8530 deg Eccentricity: 0.0095720 Arg of perigee: 070.2237 deg Mean anomaly: 290.9326 deg Mean motion: 14.53539127 rev/day Decay rate: 8.9e-07 rev/day^2 Epoch rev: 14169 Checksum: 314
Satellite: CAPE1 Catalog number: 31130 Epoch time: 09350.67753082 Element set: 768 Inclination: 097.9671 deg RA of node: 034.6665 deg Eccentricity: 0.0103695 Arg of perigee: 080.0761 deg Mean anomaly: 281.2118 deg Mean motion: 14.52114884 rev/day Decay rate: 4.0e-08 rev/day^2 Epoch rev: 14117 Checksum: 290
Satellite: COMPASS Catalog number: 32787 Epoch time: 09350.71130591 Element set: 0549 Inclination: 097.9216 deg RA of node: 052.7741 deg Eccentricity: 0.0016252 Arg of perigee: 155.9382 deg Mean anomaly: 204.2581 deg Mean motion: 14.81714852 rev/day Decay rate: 1.73e-06 rev/day^2 Epoch rev: 08847 Checksum: 308
Satellite: AAUSAT2 Catalog number: 32788 Epoch time: 09349.65084125 Element set: 0538 Inclination: 097.9211 deg RA of node: 051.8151 deg Eccentricity: 0.0015583 Arg of perigee: 160.4385 deg Mean anomaly: 199.7430 deg Mean motion: 14.81843467 rev/day Decay rate: 1.0e-07 rev/day^2 Epoch rev: 08832 Checksum: 312
Satellite: DO-64 Catalog number: 32789 Epoch time: 09350.75134347 Element set: 0570 Inclination: 097.9261 deg RA of node: 053.1994 deg Eccentricity: 0.0016093 Arg of perigee: 155.2042 deg Mean anomaly: 204.9947 deg Mean motion: 14.81889729 rev/day Decay rate: 5.95e-06 rev/day^2 Epoch rev: 08848 Checksum: 354
Satellite: CO-66 Catalog number: 32791 Epoch time: 09351.72159844 Element set: 535 Inclination: 097.9227 deg RA of node: 053.8033 deg Eccentricity: 0.0016268 Arg of perigee: 150.9385 deg Mean anomaly: 209.2727 deg Mean motion: 14.81527917 rev/day Decay rate: 7.8e-07 rev/day^2 Epoch rev: 8858 Checksum: 346
Satellite: RS-30 Catalog number: 32953 Epoch time: 09350.82064820 Element set: 477 Inclination: 082.5009 deg RA of node: 143.0736 deg Eccentricity: 0.0019421 Arg of perigee: 139.0929 deg Mean anomaly: 221.1617 deg Mean motion: 12.43003223 rev/day Decay rate: 1.0e-07 rev/day^2 Epoch rev: 7108 Checksum: 256
Satellite: TACSAT-3 Catalog number: 35001 Epoch time: 09350.91510701 Element set: 0192 Inclination: 040.4560 deg RA of node: 227.3020 deg Eccentricity: 0.0021986 Arg of perigee: 079.0456 deg Mean anomaly: 281.2834 deg Mean motion: 15.39786787 rev/day Decay rate: 2.986e-05 rev/day^2 Epoch rev: 03251 Checksum: 291
Satellite: PHARMSAT Catalog number: 35002 Epoch time: 09349.90478058 Element set: 0165 Inclination: 040.4691 deg RA of node: 232.1590 deg Eccentricity: 0.0024949 Arg of perigee: 076.0720 deg Mean anomaly: 284.2870 deg Mean motion: 15.40477773 rev/day Decay rate: 2.521e-05 rev/day^2 Epoch rev: 03236 Checksum: 292
Satellite: HAWKSAT1 Catalog number: 35003 Epoch time: 09350.97258063 Element set: 0170 Inclination: 040.4612 deg RA of node: 224.2274 deg Eccentricity: 0.0023350 Arg of perigee: 090.5495 deg Mean anomaly: 269.8001 deg Mean motion: 15.41721606 rev/day Decay rate: 5.580e-05 rev/day^2 Epoch rev: 03255 Checksum: 262
Satellite: CP6 Catalog number: 35004 Epoch time: 09350.96369657 Element set: 0171 Inclination: 040.4625 deg RA of node: 224.1693 deg Eccentricity: 0.0023539 Arg of perigee: 088.9949 deg Mean anomaly: 271.3565 deg Mean motion: 15.41935516 rev/day Decay rate: 6.594e-05 rev/day^2 Epoch rev: 03254 Checksum: 327
Satellite: AEROCUB3 Catalog number: 35005 Epoch time: 09351.89850303 Element set: 167 Inclination: 040.4716 deg RA of node: 219.1687 deg Eccentricity: 0.0023736 Arg of perigee: 091.9698 deg Mean anomaly: 268.3858 deg Mean motion: 15.41783781 rev/day Decay rate: 9.535e-05 rev/day^2 Epoch rev: 3268 Checksum: 337
Satellite: DRAGNSAT Catalog number: 35690 Epoch time: 09351.49155758 Element set: 142 Inclination: 051.6360 deg RA of node: 074.5036 deg Eccentricity: 0.0003617 Arg of perigee: 289.3331 deg Mean anomaly: 070.7290 deg Mean motion: 15.90167210 rev/day Decay rate: 5.5936e-04 rev/day^2 Epoch rev: 2219 Checksum: 290
Satellite: POLLUX Catalog number: 35693 Epoch time: 09351.50290216 Element set: 150 Inclination: 051.6372 deg RA of node: 075.3579 deg Eccentricity: 0.0001778 Arg of perigee: 220.4976 deg Mean anomaly: 139.6425 deg Mean motion: 15.88667074 rev/day Decay rate: 5.0050e-04 rev/day^2 Epoch rev: 2215 Checksum: 297
Satellite: CASTOR Catalog number: 35694 Epoch time: 09351.53433688 Element set: 132 Inclination: 051.6394 deg RA of node: 077.1260 deg Eccentricity: 0.0003322 Arg of perigee: 196.6808 deg Mean anomaly: 163.4617 deg Mean motion: 15.84189146 rev/day Decay rate: 2.1553e-04 rev/day^2 Epoch rev: 2213 Checksum: 296
Satellite: METEOR-M Catalog number: 35865 Epoch time: 09350.66044659 Element set: 79 Inclination: 098.7871 deg RA of node: 040.5251 deg Eccentricity: 0.0002599 Arg of perigee: 154.8513 deg Mean anomaly: 205.2734 deg Mean motion: 14.21828345 rev/day Decay rate: 1.76e-06 rev/day^2 Epoch rev: 1278 Checksum: 312
/EX